| time (UTC) | temp F | wind direction | speed MPH | gust MPH | rain 1hr in | rain 24hr in | rain mn in | humidity % | barometer mb |
| 20260507181548 | 55 | 42 | 0.0 | 0.0 | 0.00 | 0.00 | 0.00 | 79 | 1016.1 |
| 20260507180031 | 55 | 42 | 0.0 | 0.0 | 0.00 | 0.00 | 0.00 | 77 | 1016.1 |
| 20260507174521 | 55 | 42 | 0.0 | 0.0 | 0.00 | 0.00 | 0.00 | 75 | 1016.1 |
| 20260507173045 | 56 | 42 | 0.0 | 2.0 | 0.00 | 0.00 | 0.00 | 74 | 1016.1 |
| 20260507171606 | 56 | 52 | 1.0 | 3.0 | 0.00 | 0.00 | 0.00 | 73 | 1016.1 |
| 20260507170022 | 57 | 360 | 1.0 | 3.0 | 0.00 | 0.00 | 0.00 | 70 | 1016.0 |
| 20260507164546 | 57 | 360 | 2.0 | 3.0 | 0.00 | 0.00 | 0.00 | 72 | 1016.0 |
| 20260507163036 | 57 | 40 | 1.0 | 4.0 | 0.00 | 0.00 | 0.00 | 71 | 1016.0 |
| 20260507161508 | 57 | 98 | 1.0 | 5.0 | 0.00 | 0.00 | 0.00 | 69 | 1016.0 |
| 20260507160056 | 57 | 51 | 1.0 | 3.0 | 0.00 | 0.00 | 0.00 | 70 | 1016.0 |
| 20260507154533 | 57 | 51 | 0.0 | 2.0 | 0.00 | 0.00 | 0.00 | 72 | 1016.0 |
| 20260507153051 | 56 | 51 | 0.0 | 1.0 | 0.00 | 0.00 | 0.00 | 72 | 1016.1 |
| 20260507151507 | 56 | 51 | 0.0 | 0.0 | 0.00 | 0.00 | 0.00 | 72 | 1016.1 |
| 20260507150021 | 56 | 51 | 0.0 | 2.0 | 0.00 | 0.00 | 0.00 | 73 | 1016.1 |
| 20260507144505 | 56 | 51 | 0.0 | 2.0 | 0.00 | 0.00 | 0.00 | 71 | 1016.1 |
| 20260507143048 | 57 | 51 | 1.0 | 3.0 | 0.00 | 0.00 | 0.00 | 69 | 1016.1 |
| 20260507141534 | 58 | 331 | 1.0 | 3.0 | 0.00 | 0.00 | 0.00 | 69 | 1016.1 |
| 20260507140019 | 58 | 34 | 2.0 | 6.0 | 0.00 | 0.00 | 0.00 | 69 | 1016.2 |
| 20260507134557 | 58 | 55 | 2.0 | 5.0 | 0.00 | 0.00 | 0.00 | 69 | 1016.3 |
| 20260507133028 | 58 | 355 | 3.0 | 7.0 | 0.00 | 0.00 | 0.00 | 68 | 1016.2 |
| 20260507131606 | 59 | 31 | 3.0 | 8.0 | 0.00 | 0.00 | 0.00 | 68 | 1016.3 |
| 20260507130035 | 60 | 68 | 1.0 | 3.0 | 0.00 | 0.00 | 0.00 | 67 | 1016.3 |
| 20260507124505 | 60 | 9 | 6.0 | 9.0 | 0.00 | 0.00 | 0.00 | 67 | 1016.3 |
| 20260507123027 | 58 | 326 | 3.0 | 7.0 | 0.00 | 0.00 | 0.00 | 71 | 1016.4 |
| 20260507121600 | 57 | 355 | 2.0 | 7.0 | 0.00 | 0.00 | 0.00 | 68 | 1016.4 |
| 20260507120025 | 57 | 78 | 1.0 | 6.0 | 0.00 | 0.00 | 0.00 | 70 | 1016.4 |
| 20260507114612 | 57 | 31 | 4.0 | 7.0 | 0.00 | 0.00 | 0.00 | 71 | 1016.4 |
| 20260507113104 | 56 | 29 | 3.0 | 7.0 | 0.00 | 0.00 | 0.00 | 72 | 1016.3 |
| 20260507111540 | 56 | 17 | 2.0 | 5.0 | 0.00 | 0.00 | 0.00 | 72 | 1016.3 |
| 20260507110023 | 55 | 16 | 4.0 | 9.0 | 0.00 | 0.00 | 0.00 | 75 | 1016.3 |
| 20260507104509 | 55 | 17 | 3.0 | 7.0 | 0.00 | 0.01 | 0.00 | 77 | 1016.4 |
| 20260507103004 | 55 | 348 | 1.0 | 6.0 | 0.00 | 0.01 | 0.00 | 78 | 1016.4 |
| 20260507101550 | 55 | 66 | 4.0 | 6.0 | 0.00 | 0.01 | 0.00 | 77 | 1016.4 |
| 20260507100019 | 54 | 34 | 3.0 | 6.0 | 0.00 | 0.01 | 0.00 | 78 | 1016.4 |
| 20260507094547 | 55 | 351 | 2.0 | 7.0 | 0.00 | 0.02 | 0.00 | 78 | 1016.4 |
| 20260507093018 | 55 | 36 | 3.0 | 8.0 | 0.00 | 0.02 | 0.00 | 79 | 1016.3 |
| 20260507091543 | 55 | 21 | 2.0 | 8.0 | 0.00 | 0.02 | 0.00 | 81 | 1016.2 |
| 20260507090009 | 54 | 36 | 4.0 | 7.0 | 0.00 | 0.05 | 0.00 | 80 | 1016.1 |
| 20260507084603 | 55 | 23 | 6.0 | 9.0 | 0.00 | 0.05 | 0.00 | 82 | 1016.0 |
| 20260507083027 | 53 | 21 | 3.0 | 7.0 | 0.00 | 0.05 | 0.00 | 86 | 1016.1 |
| 20260507081508 | 51 | 360 | 3.0 | 5.0 | 0.00 | 0.05 | 0.00 | 91 | 1016.0 |
| 20260507080046 | 50 | 28 | 3.0 | 6.0 | 0.00 | 0.05 | 0.00 | 94 | 1015.9 |
| 20260507074515 | 49 | 18 | 2.0 | 7.0 | 0.00 | 0.06 | 0.00 | 96 | 1015.8 |
| 20260507073102 | 48 | 13 | 2.0 | 7.0 | 0.00 | 0.06 | 0.00 | 97 | 1015.8 |
| 20260507071526 | 48 | 355 | 2.0 | 5.0 | 0.00 | 0.06 | 0.00 | 98 | 1015.7 |
| 20260507070104 | 47 | 351 | 3.0 | 5.0 | 0.00 | 0.06 | 0.00 | 98 | 1015.6 |
| 20260507064540 | 47 | 355 | 1.0 | 3.0 | 0.00 | 0.07 | 0.00 | 98 | 1015.5 |
| 20260507063009 | 46 | 355 | 2.0 | 3.0 | 0.00 | 0.07 | 0.00 | 98 | 1015.4 |
| 20260507061545 | 45 | 355 | 1.0 | 3.0 | 0.00 | 0.07 | 0.00 | 98 | 1015.2 |
| 20260507060016 | 44 | 276 | 0.0 | 0.0 | 0.00 | 0.07 | 0.00 | 97 | 1015.2 |
| 20260507054550 | 43 | 276 | 0.0 | 0.0 | 0.00 | 0.10 | 0.00 | 97 | 1015.0 |
| 20260507053027 | 43 | 276 | 0.0 | 0.0 | 0.00 | 0.10 | 0.00 | 97 | 1014.8 |
| 20260507051602 | 43 | 276 | 0.0 | 1.0 | 0.00 | 0.10 | 0.00 | 97 | 1014.8 |
| 20260507050036 | 42 | 276 | 0.0 | 1.0 | 0.00 | 0.10 | 0.00 | 97 | 1014.6 |
| 20260507044515 | 42 | 276 | 1.0 | 2.0 | 0.00 | 0.14 | 0.00 | 97 | 1014.4 |
| 20260507043101 | 42 | 276 | 0.0 | 1.0 | 0.00 | 0.14 | 0.00 | 97 | 1014.3 |
| 20260507041529 | 42 | 276 | 1.0 | 2.0 | 0.00 | 0.14 | 0.00 | 97 | 1014.2 |
| 20260507040100 | 42 | 276 | 0.0 | 2.0 | 0.00 | 0.14 | 0.00 | 97 | 1014.1 |
| 20260507034541 | 42 | 276 | 0.0 | 2.0 | 0.00 | 0.16 | 0.00 | 97 | 1014.0 |
| 20260507033009 | 42 | 276 | 0.0 | 2.0 | 0.00 | 0.16 | 0.00 | 97 | 1014.0 |
| 20260507031547 | 42 | 276 | 0.0 | 1.0 | 0.00 | 0.16 | 0.00 | 97 | 1014.0 |
| 20260507030025 | 42 | 276 | 0.0 | 1.0 | 0.00 | 0.16 | 0.00 | 96 | 1013.9 |
| 20260507024600 | 41 | 276 | 0.0 | 1.0 | 0.00 | 0.20 | 0.00 | 96 | 1013.8 |
| 20260507023035 | 41 | 276 | 1.0 | 2.0 | 0.00 | 0.20 | 0.00 | 96 | 1013.7 |
| 20260507021513 | 41 | 276 | 0.0 | 1.0 | 0.00 | 0.20 | 0.00 | 96 | 1013.6 |
| 20260507014533 | 40 | 304 | 1.0 | 2.0 | 0.00 | 0.24 | 0.00 | 95 | 1013.5 |
| 20260507013003 | 40 | 11 | 1.0 | 2.0 | 0.00 | 0.24 | 0.00 | 95 | 1013.4 |
| 20260507011542 | 40 | 11 | 0.0 | 2.0 | 0.00 | 0.24 | 0.00 | 95 | 1013.4 |
| 20260507010004 | 41 | 11 | 0.0 | 1.0 | 0.00 | 0.26 | 0.00 | 95 | 1013.3 |
| 20260507004544 | 41 | 11 | 0.0 | 1.0 | 0.00 | 0.26 | 0.00 | 94 | 1013.3 |
| 20260507003016 | 42 | 11 | 0.0 | 1.0 | 0.00 | 0.26 | 0.00 | 94 | 1013.3 |
| 20260507001611 | 42 | 11 | 0.0 | 0.0 | 0.00 | 0.26 | 0.00 | 94 | 1013.2 |
| 20260507000032 | 43 | 11 | 0.0 | 0.0 | 0.00 | 0.26 | 0.00 | 94 | 1013.2 |
| 20260506234603 | 43 | 11 | 0.0 | 1.0 | 0.00 | 0.28 | 0.00 | 94 | 1013.2 |
| 20260506233032 | 43 | 11 | 0.0 | 2.0 | 0.00 | 0.28 | 0.00 | 93 | 1013.1 |
| 20260506231510 | 43 | 11 | 0.0 | 1.0 | 0.00 | 0.28 | 0.00 | 92 | 1013.0 |
| 20260506230056 | 44 | 11 | 0.0 | 0.0 | 0.00 | 0.28 | 0.00 | 92 | 1012.8 |
| 20260506224525 | 44 | 11 | 0.0 | 1.0 | 0.00 | 0.31 | 0.28 | 91 | 1012.8 |
| 20260506223029 | 45 | 318 | 1.0 | 4.0 | 0.00 | 0.31 | 0.28 | 91 | 1012.7 |
| 20260506221517 | 46 | 9 | 4.0 | 7.0 | 0.00 | 0.31 | 0.28 | 91 | 1012.5 |
| 20260506220057 | 47 | 350 | 1.0 | 4.0 | 0.00 | 0.31 | 0.28 | 91 | 1012.4 |
| 20260506214544 | 47 | 360 | 3.0 | 6.0 | 0.00 | 0.32 | 0.28 | 91 | 1012.4 |
| 20260506213019 | 47 | 355 | 3.0 | 6.0 | 0.00 | 0.32 | 0.28 | 91 | 1012.4 |
| 20260506211507 | 48 | 15 | 2.0 | 6.0 | 0.00 | 0.32 | 0.28 | 92 | 1012.3 |
| 20260506210057 | 48 | 355 | 3.0 | 5.0 | 0.00 | 0.32 | 0.28 | 93 | 1012.1 |
| 20260506204545 | 49 | 25 | 2.0 | 5.0 | 0.00 | 0.33 | 0.28 | 92 | 1012.0 |
| 20260506203015 | 49 | 30 | 1.0 | 3.0 | 0.00 | 0.33 | 0.28 | 92 | 1011.8 |
| 20260506201557 | 50 | 344 | 0.0 | 2.0 | 0.00 | 0.33 | 0.28 | 92 | 1011.5 |
| 20260506200101 | 50 | 344 | 0.0 | 3.0 | 0.00 | 0.33 | 0.28 | 91 | 1011.5 |
| 20260506194537 | 50 | 254 | 0.0 | 4.0 | 0.00 | 0.35 | 0.28 | 91 | 1011.4 |
| 20260506193032 | 50 | 278 | 0.0 | 3.0 | 0.00 | 0.35 | 0.28 | 91 | 1011.2 |
| 20260506191555 | 50 | 278 | 1.0 | 3.0 | 0.00 | 0.35 | 0.28 | 90 | 1011.0 |
| 20260506190054 | 50 | 309 | 1.0 | 3.0 | 0.00 | 0.35 | 0.28 | 90 | 1010.9 |
| 20260506184549 | 51 | 288 | 0.0 | 3.0 | 0.00 | 0.38 | 0.28 | 91 | 1010.8 |
| 20260506183028 | 51 | 287 | 0.0 | 3.0 | 0.00 | 0.38 | 0.28 | 92 | 1010.7 |